EHI
11 9 5 4 4 5 6 6 4 1 0 1 4 9 13 13 7 6 6 2 0 0 0 0 0 0 0 0 0 0 0 0 0 0 0 0 0 0
12 11 8 5 4 5 6 7 6 2 0 1 3 5 7 7 6 7 6 2 0 0 0 0 0 0 0 0 0 0 0 0 0 0 0 0 0 0
9 8 8 7 5 5 5 6 5 2 0 1 2 4 5 6 6 7 5 2 0 0 0 0 0 0 0 0 0 0 0 0 0 0 0 0 0 0
4 4 4 5 4 3 3 3 2 1 0 1 1 4 7 8 8 6 4 2 1 0 0 0 0 0 0 0 0 0 0 0 0 0 0 0 0 0
3 2 2 3 2 1 1 1 0 0 0 1 1 3 5 6 6 5 3 2 1 0 0 0 0 0 0 0 0 0 0 0 0 0 0 0 0 0
2 2 2 2 1 0 0 0 0 0 0 0 1 2 2 2 2 1 1 1 1 0 0 0 0 0 0 0 0 0 0 0 0 0 0 0 0 0
1 2 3 2 1 0 0 0 0 0 0 0 0 1 1 0 0 0 0 0 0 0 0 0 0 0 0 0 0 0 0 0 0 0 0 0 0 0
3 3 3 1 0 0 0 0 0 0 0 0 0 0 0 0 0 0 0 0 0 0 0 0 0 0 0 0 0 0 0 0 0 0 0 0 0 0
3 3 2 1 0 0 0 0 0 0 0 0 0 0 0 0 0 0 0 0 0 0 0 0 0 0 0 0 0 0 0 0 0 0 0 0 0 0
2 2 1 0 0 0 0 0 0 0 0 0 0 0 0 0 0 0 0 0 0 0 0 0 0 0 0 0 0 0 0 0 0 0 0 0 0 0
1 1 0 0 0 0 0 0 0 0 0 0 0 0 0 0 0 0 0 0 0 0 0 0 0 0 0 0 0 0 0 0 0 0 0 0 0 0
0 0 0 0 0 0 0 0 0 0 0 0 0 0 0 0 0 0 0 0 0 0 0 0 0 0 0 0 0 0 0 0 0 0 0 0 0 0
0 0 0 0 0 0 0 0 0 0 0 0 0 0 0 0 0 0 0 0 0 0 0 0 0 0 0 0 0 0 0 0 0 0 0 0 0 0
0 0 0 0 0 0 0 0 0 0 0 0 0 0 0 0 0 0 0 0 0 0 0 0 0 0 0 0 0 0 0 0 0 0 0 0 0 0
0 0 0 0 0 0 0 0 0 0 0 0 0 0 0 0 0 0 0 0 0 0 0 0 0 0 0 0 0 0 0 0 0 0 0 0 0 0
0 0 0 0 0 0 0 0 0 0 0 0 0 0 0 0 0 0 0 0 0 0 0 0 0 0 0 0 0 0 0 0 0 0 0 0 0 0
0 0 0 0 0 0 0 0 0 0 0 0 0 0 0 0 0 0 0 0 0 0 0 0 0 0 0 0 0 0 0 0 0 0 0 0 0 0
0 0 0 0 0 0 0 0 0 0 0 0 0 0 0 0 0 0 0 0 0 0 0 0 0 0 0 0 0 0 0 0 0 0 0 0 0 0
0 0 0 0 0 0 0 0 0 0 0 0 0 0 0 0 0 0 0 0 0 0 0 0 0 0 0 0 0 0 0 0 0 0 0 0 0 0
0 0 0 0 0 0 0 0 0 0 0 0 0 0 0 0 0 0 0 0 0 0 0 0 0 0 0 0 0 0 0 0 0 0 0 0 0 0
0 0 0 0 0 0 0 0 0 0 0 0 0 0 0 0 0 0 0 0 0 0 0 0 0 0 0 0 0 0 0 0 0 0 0 0 0 0
0 0 0 0 0 0 0 0 0 0 0 0 0 0 0 0 0 0 0 0 0 0 0 0 0 0 0 0 0 0 0 0 0 0 0 0 0 0
0 0 0 0 0 0 0 0 0 0 0 0 0 0 0 0 0 0 0 0 0 0 0 0 0 0 0 0 0 0 0 0 0 0 0 0 0 0
Wind_Speed
3 3 3 3 2 2 2 2 3 3 3 2 1 1 1 1 3 3 3 7 8 7 6 5 4 4 3 3 4 4 5 5 5 6 6 7 7 7
2 3 3 2 2 2 2 2 2 2 2 1 1 1 1 1 3 2 2 6 7 7 6 5 5 4 3 3 3 3 3 3 4 4 4 4 4 5
2 2 3 2 1 1 1 1 1 1 2 2 1 1 1 1 1 1 1 2 3 6 6 6 5 4 3 2 2 2 2 3 3 3 3 3 3 4
1 1 2 1 0 1 1 1 1 1 2 2 1 2 2 1 1 1 1 1 2 4 5 4 4 3 3 2 2 2 1 1 1 1 1 1 2 2
3 2 2 2 2 1 1 1 1 1 0 1 1 1 1 1 1 1 1 1 1 3 4 4 4 4 4 3 2 2 2 1 1 1 1 0 1 1
5 5 4 4 3 2 2 2 1 1 0 0 0 1 1 1 1 1 1 1 1 3 3 4 5 6 5 4 4 3 2 2 2 2 2 2 2 2
6 6 7 8 9 6 4 4 3 2 2 1 2 2 2 2 2 1 1 1 2 3 2 2 3 3 4 5 6 5 5 4 4 4 4 4 4 3
5 5 6 7 8 9 11 10 8 5 3 3 2 2 2 2 2 2 1 2 1 2 2 2 2 3 3 3 5 7 6 6 5 5 5 5 5 4
7 6 6 7 6 5 8 9 11 11 8 4 4 3 3 3 3 3 3 2 1 1 1 1 2 3 2 4 6 6 6 5 5 5 5 4 3 3
8 8 7 7 8 6 6 7 8 8 7 6 5 4 4 3 3 2 2 2 3 3 3 2 2 2 3 3 4 5 5 4 4 4 3 3 2 2
8 9 8 8 10 8 6 6 6 5 7 8 7 6 7 7 5 3 3 3 2 3 3 3 2 2 1 1 2 3 2 3 3 2 2 1 0 1
6 8 12 10 11 10 6 5 5 4 3 4 4 3 4 5 7 5 4 3 2 2 3 2 1 1 1 1 0 1 1 2 2 2 2 2 2 1
5 5 6 9 10 10 8 5 4 2 1 2 2 3 3 3 4 4 4 3 3 2 2 2 1 1 1 1 1 0 1 1 1 1 2 3 2 0
5 5 4 6 7 7 6 6 6 4 2 2 3 3 3 3 3 2 2 1 1 1 1 1 1 1 1 1 1 0 0 0 0 0 0 0 1 1
4 4 3 3 3 3 4 6 5 3 3 4 4 4 3 2 2 2 1 1 1 1 2 1 2 2 2 2 1 1 1 1 2 2 2 1 0 0
3 2 1 2 2 3 3 4 4 4 4 3 3 3 2 2 2 2 2 2 1 1 1 2 2 2 2 2 2 2 2 1 2 2 2 2 1 2
2 0 1 1 2 3 3 3 4 4 4 4 3 3 3 3 2 2 2 2 3 3 2 2 2 2 3 2 2 2 2 2 2 2 2 1 1 3
3 2 3 3 4 4 3 4 4 4 4 4 3 3 3 3 3 3 3 3 3 2 2 2 2 2 2 3 4 3 2 2 2 2 2 1 2 2
2 3 3 3 4 4 4 4 4 4 4 4 3 3 3 3 3 3 3 3 3 3 3 3 3 3 3 2 3 4 3 3 3 3 2 1 1 1
2 3 4 4 4 4 4 4 4 3 3 4 4 3 3 3 3 3 3 4 3 3 3 3 3 3 3 2 1 2 2 2 2 2 3 1 2 2
4 4 4 4 4 3 3 3 3 3 3 3 3 4 4 4 3 4 3 4 4 3 3 3 2 3 2 2 1 1 1 2 1 1 2 1 1 1
4 4 4 4 4 3 3 3 3 3 4 4 4 4 4 4 4 4 4 3 3 3 3 2 2 3 2 3 2 1 1 1 2 1 1 2 1 1
4 4 3 3 3 3 3 4 4 4 4 4 4 4 4 3 3 3 3 4 3 4 4 3 3 3 3 3 2 2 2 1 1 1 2 4 5 5
Wind_Direction
242 249 248 261 262 256 248 233 230 255 269 259 251 247 182 156 166 165 164 178 178 177 180 188 196 207 215 223 232 235 238 240 243 243 244 244 244 243
236 253 255 260 267 267 259 248 222 224 247 265 259 251 175 186 140 132 170 152 168 175 178 184 187 192 199 211 224 233 236 241 245 245 245 248 251 248
257 254 253 253 257 276 287 268 248 220 237 269 297 338 15 47 87 150 168 155 170 177 183 185 180 180 187 191 198 211 227 236 238 244 246 249 256 257
316 333 331 318 344 326 319 299 276 258 231 253 297 339 357 24 29 355 89 136 137 153 174 173 167 164 161 153 141 132 151 218 218 225 240 249 260 270
35 28 17 21 20 13 358 334 319 304 237 218 274 321 350 0 353 351 31 38 71 107 119 127 127 122 119 120 113 110 110 132 132 127 120 246 292 311
42 40 33 29 20 9 12 356 351 4 354 314 325 342 349 340 11 341 28 42 53 70 71 89 102 105 101 91 84 81 93 112 111 105 97 88 73 48
49 50 55 56 54 48 42 25 20 22 21 33 31 32 17 2 355 335 41 62 60 59 74 86 93 85 80 75 71 70 76 78 79 82 80 74 70 65
51 50 64 61 64 66 64 57 49 43 35 40 35 34 20 12 1 4 40 46 38 25 49 63 91 90 89 79 81 84 82 82 82 80 78 77 75 73
45 43 53 51 48 67 71 62 54 47 47 56 48 28 27 13 17 22 22 22 29 13 38 44 63 79 78 91 107 104 101 99 99 99 98 91 79 75
47 44 49 43 35 41 66 66 58 46 44 58 59 46 40 16 16 26 30 36 65 37 23 38 33 50 77 96 121 119 120 121 120 118 112 106 89 66
57 49 46 46 30 41 65 73 70 66 60 65 68 62 50 39 35 37 30 38 44 42 20 28 15 21 38 95 126 144 148 154 155 157 157 165 218 0
74 63 51 43 33 35 51 60 63 50 50 56 63 52 51 46 44 40 34 33 37 44 19 19 14 14 5 15 102 174 192 212 214 218 221 234 251 283
73 64 48 40 43 40 45 50 42 9 10 69 82 71 56 50 51 50 42 42 42 41 18 11 349 353 4 331 309 227 177 153 192 258 252 254 263 299
72 72 67 51 48 42 41 25 9 2 11 50 62 55 52 49 45 48 49 47 75 109 28 13 354 357 350 347 338 358 27 37 102 101 72 48 192 115
76 82 76 54 35 45 37 18 12 17 27 43 50 50 48 40 32 27 15 7 11 62 82 53 20 0 359 10 4 21 17 5 32 37 30 26 64 71
91 103 65 1 16 33 32 35 37 31 31 39 41 36 30 30 28 23 15 4 21 33 50 41 33 24 9 8 21 21 22 12 18 24 9 4 40 62
1 173 101 86 79 68 58 46 38 33 33 29 28 23 22 23 20 19 14 7 18 26 26 10 14 41 55 30 21 22 15 9 14 5 359 8 49 78
16 53 57 50 49 50 50 54 50 33 22 23 25 21 17 16 15 13 14 15 12 14 21 15 8 5 19 42 25 11 13 359 343 339 341 11 70 77
33 62 60 50 47 47 45 46 47 35 18 20 22 17 9 6 7 6 15 16 10 4 8 12 13 10 1 3 359 6 8 353 347 344 341 9 60 102
57 65 63 58 51 44 42 39 41 32 18 19 16 6 1 5 5 7 20 13 359 352 0 16 22 12 350 326 312 323 342 350 352 346 343 19 60 80
65 64 59 57 55 50 42 39 39 34 19 11 17 7 4 6 10 5 11 8 354 353 5 9 344 316 291 309 331 350 346 346 351 301 324 333 321 248
57 59 57 52 45 38 34 31 31 29 18 17 21 7 5 3 3 4 4 1 356 356 355 344 330 329 325 324 326 323 314 313 331 322 265 238 260 281
54 56 63 51 45 30 26 28 31 28 20 15 11 0 1 358 351 355 358 356 352 351 344 345 341 328 321 319 335 346 343 312 274 276 280 256 242 244